Time,TemperatureF,DewpointF,PressureIn,WindDirection,WindDirectionDegrees,WindSpeedMPH,WindSpeedGustMPH,Humidity,HourlyPrecipIn,Conditions,Clouds,dailyrainin,SoftwareType,DateUTC
2013-03-30 00:02:00,42.0,31.0,30.01,WNW,292,1.0,-999.0,65,-99.99,,,-99.99,,2013-03-30 04:02:00,
2013-03-30 00:12:00,42.0,31.0,30.01,WNW,292,1.0,-999.0,65,-99.99,,,-99.99,,2013-03-30 04:12:00,
2013-03-30 00:23:00,42.0,31.0,30.01,West,279,2.0,-999.0,66,-99.99,,,-99.99,,2013-03-30 04:23:00,
2013-03-30 00:33:00,42.0,31.0,30.01,WNW,282,1.0,-999.0,66,-99.99,,,-99.99,,2013-03-30 04:33:00,
2013-03-30 00:43:00,42.0,31.0,30.01,WNW,282,1.0,-999.0,66,-99.99,,,-99.99,,2013-03-30 04:43:00,
2013-03-30 00:53:00,42.0,31.0,30.01,West,281,1.0,-999.0,66,-99.99,,,-99.99,,2013-03-30 04:53:00,
2013-03-30 01:02:00,41.0,31.0,30.01,West,265,0.0,-999.0,67,-99.99,,,-99.99,,2013-03-30 05:02:00,
2013-03-30 01:12:00,41.0,31.0,30.01,West,265,0.0,-999.0,67,-99.99,,,-99.99,,2013-03-30 05:12:00,
2013-03-30 01:22:00,41.0,31.0,30.01,West,261,0.0,-999.0,67,-99.99,,,-99.99,,2013-03-30 05:22:00,
2013-03-30 01:32:00,41.0,31.0,30.01,West,262,0.0,-999.0,68,-99.99,,,-99.99,,2013-03-30 05:32:00,
2013-03-30 01:42:00,41.0,31.0,30.01,West,262,0.0,-999.0,68,-99.99,,,-99.99,,2013-03-30 05:42:00,
2013-03-30 01:52:00,40.0,31.0,30.01,West,264,0.0,-999.0,69,-99.99,,,-99.99,,2013-03-30 05:52:00,
2013-03-30 02:02:00,40.0,31.0,30.02,West,264,0.0,-999.0,70,-99.99,,,-99.99,,2013-03-30 06:02:00,
2013-03-30 02:12:00,40.0,31.0,30.02,West,264,0.0,-999.0,70,-99.99,,,-99.99,,2013-03-30 06:12:00,
2013-03-30 02:23:00,40.0,31.0,30.02,West,264,0.0,-999.0,70,-99.99,,,-99.99,,2013-03-30 06:23:00,
2013-03-30 02:32:00,40.0,31.0,30.01,West,259,0.0,-999.0,71,-99.99,,,-99.99,,2013-03-30 06:32:00,
2013-03-30 02:42:00,40.0,31.0,30.01,West,259,0.0,-999.0,71,-99.99,,,-99.99,,2013-03-30 06:42:00,
2013-03-30 02:52:00,39.0,30.0,30.01,West,274,1.0,-999.0,71,-99.99,,,-99.99,,2013-03-30 06:52:00,
2013-03-30 03:02:00,39.0,31.0,30.01,West,260,0.0,-999.0,72,-99.99,,,-99.99,,2013-03-30 07:02:00,
2013-03-30 03:12:00,39.0,31.0,30.01,West,260,0.0,-999.0,72,-99.99,,,-99.99,,2013-03-30 07:12:00,
2013-03-30 03:22:00,39.0,31.0,30.01,West,260,0.0,-999.0,72,-99.99,,,-99.99,,2013-03-30 07:22:00,
2013-03-30 03:32:00,38.0,30.0,30.01,WNW,284,0.0,-999.0,73,-99.99,,,-99.99,,2013-03-30 07:32:00,
2013-03-30 03:42:00,38.0,30.0,30.01,WNW,284,0.0,-999.0,73,-99.99,,,-99.99,,2013-03-30 07:42:00,
2013-03-30 03:52:00,38.0,30.0,30.01,West,275,0.0,-999.0,74,-99.99,,,-99.99,,2013-03-30 07:52:00,
2013-03-30 04:02:00,37.0,29.0,30.01,West,276,0.0,-999.0,74,-99.99,,,-99.99,,2013-03-30 08:02:00,
2013-03-30 04:12:00,37.0,29.0,30.01,West,276,0.0,-999.0,74,-99.99,,,-99.99,,2013-03-30 08:12:00,
2013-03-30 04:22:00,37.0,30.0,30.01,WSW,257,0.0,-999.0,75,-99.99,,,-99.99,,2013-03-30 08:22:00,
2013-03-30 04:32:00,36.0,29.0,30.01,West,268,0.0,-999.0,76,-99.99,,,-99.99,,2013-03-30 08:32:00,
2013-03-30 04:42:00,36.0,29.0,30.01,West,268,0.0,-999.0,76,-99.99,,,-99.99,,2013-03-30 08:42:00,
2013-03-30 04:53:00,36.0,29.0,30.01,West,271,0.0,-999.0,76,-99.99,,,-99.99,,2013-03-30 08:53:00,
2013-03-30 05:02:00,36.0,29.0,30.01,West,271,0.0,-999.0,77,-99.99,,,-99.99,,2013-03-30 09:02:00,
2013-03-30 05:12:00,35.0,29.0,30.01,West,278,1.0,-999.0,77,-99.99,,,-99.99,,2013-03-30 09:12:00,
2013-03-30 05:22:00,35.0,29.0,30.01,West,278,1.0,-999.0,77,-99.99,,,-99.99,,2013-03-30 09:22:00,
2013-03-30 05:43:00,35.0,29.0,30.00,West,278,0.0,-999.0,78,-99.99,,,-99.99,,2013-03-30 09:43:00,
2013-03-30 05:54:00,34.0,28.0,30.01,West,278,0.0,-999.0,78,-99.99,,,-99.99,,2013-03-30 09:54:00,
2013-03-30 06:02:00,34.0,28.0,30.01,West,262,0.0,-999.0,79,-99.99,,,-99.99,,2013-03-30 10:02:00,
2013-03-30 06:13:00,34.0,28.0,30.01,West,262,0.0,-999.0,79,-99.99,,,-99.99,,2013-03-30 10:13:00,
2013-03-30 06:23:00,34.0,28.0,30.01,West,263,0.0,-999.0,79,-99.99,,,-99.99,,2013-03-30 10:23:00,
2013-03-30 06:33:00,34.0,28.0,30.01,West,263,0.0,-999.0,79,-99.99,,,-99.99,,2013-03-30 10:33:00,
2013-03-30 06:42:00,34.0,28.0,30.01,West,263,0.0,-999.0,79,-99.99,,,-99.99,,2013-03-30 10:42:00,
2013-03-30 06:53:00,34.0,28.0,30.01,West,279,0.0,-999.0,78,-99.99,,,-99.99,,2013-03-30 10:53:00,
2013-03-30 07:03:00,34.0,28.0,30.01,West,276,0.0,-999.0,78,-99.99,,,-99.99,,2013-03-30 11:03:00,
2013-03-30 07:12:00,34.0,28.0,30.01,West,276,0.0,-999.0,78,-99.99,,,-99.99,,2013-03-30 11:12:00,
2013-03-30 07:23:00,35.0,29.0,30.01,WNW,286,0.0,-999.0,77,-99.99,,,-99.99,,2013-03-30 11:23:00,
2013-03-30 07:33:00,35.0,29.0,30.02,West,263,0.0,-999.0,77,-99.99,,,-99.99,,2013-03-30 11:33:00,
2013-03-30 07:42:00,35.0,29.0,30.02,West,263,0.0,-999.0,77,-99.99,,,-99.99,,2013-03-30 11:42:00,
2013-03-30 07:53:00,36.0,29.0,30.03,West,266,0.0,-999.0,75,-99.99,,,-99.99,,2013-03-30 11:53:00,
2013-03-30 08:02:00,38.0,29.0,30.03,WNW,296,2.0,-999.0,70,-99.99,,,-99.99,,2013-03-30 12:02:00,
2013-03-30 08:13:00,38.0,29.0,30.03,WNW,296,2.0,-999.0,70,-99.99,,,-99.99,,2013-03-30 12:13:00,
2013-03-30 08:22:00,40.0,29.0,30.03,WNW,293,4.0,-999.0,65,-99.99,,,-99.99,,2013-03-30 12:22:00,
2013-03-30 08:32:00,41.0,29.0,30.03,West,280,4.0,-999.0,62,-99.99,,,-99.99,,2013-03-30 12:32:00,
2013-03-30 08:42:00,41.0,29.0,30.03,West,280,4.0,-999.0,62,-99.99,,,-99.99,,2013-03-30 12:42:00,
2013-03-30 08:53:00,42.0,29.0,30.03,NW,315,4.0,-999.0,59,-99.99,,,-99.99,,2013-03-30 12:53:00,
2013-03-30 09:02:00,43.0,29.0,30.03,NNE,12,2.0,-999.0,57,-99.99,,,-99.99,,2013-03-30 13:02:00,
2013-03-30 09:12:00,43.0,29.0,30.03,NNE,12,2.0,-999.0,57,-99.99,,,-99.99,,2013-03-30 13:12:00,
2013-03-30 09:22:00,44.0,28.0,30.03,NNE,26,3.0,-999.0,54,-99.99,,,-99.99,,2013-03-30 13:22:00,
2013-03-30 09:32:00,45.0,27.0,30.03,NNW,335,3.0,-999.0,49,-99.99,,,-99.99,,2013-03-30 13:32:00,
2013-03-30 09:43:00,45.0,27.0,30.03,NNW,335,3.0,-999.0,49,-99.99,,,-99.99,,2013-03-30 13:43:00,
2013-03-30 09:53:00,46.0,26.0,30.03,NNE,21,5.0,-999.0,46,-99.99,,,-99.99,,2013-03-30 13:53:00,
2013-03-30 10:03:00,47.0,26.0,30.03,North,5,5.0,-999.0,44,-99.99,,,-99.99,,2013-03-30 14:03:00,
2013-03-30 10:12:00,47.0,26.0,30.03,North,5,5.0,-999.0,44,-99.99,,,-99.99,,2013-03-30 14:12:00,
2013-03-30 10:23:00,48.0,26.0,30.03,NW,309,4.0,-999.0,42,-99.99,,,-99.99,,2013-03-30 14:23:00,
2013-03-30 10:32:00,48.0,25.0,30.03,NW,304,4.0,-999.0,40,-99.99,,,-99.99,,2013-03-30 14:32:00,
2013-03-30 10:42:00,48.0,25.0,30.03,NW,304,4.0,-999.0,40,-99.99,,,-99.99,,2013-03-30 14:42:00,
2013-03-30 10:52:00,49.0,25.0,30.03,NW,304,4.0,-999.0,39,-99.99,,,-99.99,,2013-03-30 14:52:00,
2013-03-30 11:03:00,50.0,25.0,30.03,ENE,60,5.0,-999.0,37,-99.99,,,-99.99,,2013-03-30 15:03:00,
2013-03-30 11:12:00,50.0,25.0,30.03,ENE,60,5.0,-999.0,37,-99.99,,,-99.99,,2013-03-30 15:12:00,
2013-03-30 11:22:00,51.0,24.0,30.03,NNW,342,3.0,-999.0,35,-99.99,,,-99.99,,2013-03-30 15:22:00,
2013-03-30 11:33:00,51.0,24.0,30.02,NNE,18,6.0,-999.0,34,-99.99,,,-99.99,,2013-03-30 15:33:00,
2013-03-30 11:43:00,51.0,24.0,30.02,NNE,18,6.0,-999.0,34,-99.99,,,-99.99,,2013-03-30 15:43:00,
2013-03-30 11:53:00,51.0,23.0,30.01,NNW,330,6.0,-999.0,33,-99.99,,,-99.99,,2013-03-30 15:53:00,
2013-03-30 12:03:00,52.0,23.0,30.01,NW,320,4.0,-999.0,32,-99.99,,,-99.99,,2013-03-30 16:03:00,
2013-03-30 12:13:00,53.0,23.0,30.01,WNW,285,3.0,-999.0,31,-99.99,,,-99.99,,2013-03-30 16:13:00,
2013-03-30 12:23:00,53.0,23.0,30.01,WNW,285,3.0,-999.0,31,-99.99,,,-99.99,,2013-03-30 16:23:00,
2013-03-30 12:33:00,54.0,24.0,30.01,North,10,3.0,-999.0,31,-99.99,,,-99.99,,2013-03-30 16:33:00,
2013-03-30 12:43:00,54.0,24.0,30.01,North,10,3.0,-999.0,31,-99.99,,,-99.99,,2013-03-30 16:43:00,
2013-03-30 12:53:00,54.0,22.0,30.00,NW,324,3.0,-999.0,29,-99.99,,,-99.99,,2013-03-30 16:53:00,
2013-03-30 13:02:00,54.0,22.0,30.00,WSW,254,4.0,-999.0,28,-99.99,,,-99.99,,2013-03-30 17:02:00,
2013-03-30 13:13:00,54.0,22.0,30.00,WSW,254,4.0,-999.0,28,-99.99,,,-99.99,,2013-03-30 17:13:00,
2013-03-30 13:23:00,54.0,21.0,30.00,NW,316,4.0,-999.0,27,-99.99,,,-99.99,,2013-03-30 17:23:00,
2013-03-30 13:32:00,55.0,20.0,29.99,NNW,341,5.0,-999.0,25,-99.99,,,-99.99,,2013-03-30 17:32:00,
2013-03-30 13:42:00,55.0,20.0,29.99,NNW,341,5.0,-999.0,25,-99.99,,,-99.99,,2013-03-30 17:42:00,
2013-03-30 13:53:00,55.0,21.0,29.99,NE,46,4.0,-999.0,26,-99.99,,,-99.99,,2013-03-30 17:53:00,
2013-03-30 14:03:00,55.0,19.0,29.98,WNW,298,5.0,-999.0,24,-99.99,,,-99.99,,2013-03-30 18:03:00,
2013-03-30 14:12:00,55.0,19.0,29.98,WNW,301,5.0,-999.0,24,-99.99,,,-99.99,,2013-03-30 18:12:00,
2013-03-30 14:22:00,55.0,19.0,29.98,WNW,301,5.0,-999.0,24,-99.99,,,-99.99,,2013-03-30 18:22:00,
2013-03-30 14:32:00,55.0,19.0,29.98,NNW,329,5.0,-999.0,24,-99.99,,,-99.99,,2013-03-30 18:32:00,
2013-03-30 14:42:00,55.0,19.0,29.98,NNW,329,5.0,-999.0,24,-99.99,,,-99.99,,2013-03-30 18:42:00,
2013-03-30 14:53:00,55.0,19.0,29.98,SSE,153,4.0,-999.0,24,-99.99,,,-99.99,,2013-03-30 18:53:00,
2013-03-30 15:03:00,56.0,21.0,29.98,West,263,4.0,-999.0,25,-99.99,,,-99.99,,2013-03-30 19:03:00,
2013-03-30 15:13:00,56.0,21.0,29.98,West,263,4.0,-999.0,25,-99.99,,,-99.99,,2013-03-30 19:13:00,
2013-03-30 15:22:00,57.0,22.0,29.98,NW,312,4.0,-999.0,25,-99.99,,,-99.99,,2013-03-30 19:22:00,
2013-03-30 15:32:00,56.0,20.0,29.98,West,264,4.0,-999.0,24,-99.99,,,-99.99,,2013-03-30 19:32:00,
2013-03-30 15:42:00,56.0,20.0,29.98,West,264,4.0,-999.0,24,-99.99,,,-99.99,,2013-03-30 19:42:00,
2013-03-30 15:53:00,55.0,21.0,29.97,WSW,254,4.0,-999.0,26,-99.99,,,-99.99,,2013-03-30 19:53:00,
2013-03-30 16:02:00,55.0,21.0,29.97,NW,317,3.0,-999.0,26,-99.99,,,-99.99,,2013-03-30 20:02:00,
2013-03-30 16:12:00,55.0,21.0,29.97,NW,317,3.0,-999.0,26,-99.99,,,-99.99,,2013-03-30 20:12:00,
2013-03-30 16:22:00,55.0,21.0,29.97,West,259,3.0,-999.0,26,-99.99,,,-99.99,,2013-03-30 20:22:00,
2013-03-30 16:33:00,55.0,19.0,29.97,West,276,3.0,-999.0,24,-99.99,,,-99.99,,2013-03-30 20:33:00,
2013-03-30 16:42:00,55.0,19.0,29.97,West,276,3.0,-999.0,24,-99.99,,,-99.99,,2013-03-30 20:42:00,
2013-03-30 16:53:00,55.0,18.0,29.97,WNW,284,6.0,-999.0,23,-99.99,,,-99.99,,2013-03-30 20:53:00,
2013-03-30 17:02:00,55.0,19.0,29.97,West,267,4.0,-999.0,24,-99.99,,,-99.99,,2013-03-30 21:02:00,
2013-03-30 17:12:00,55.0,19.0,29.97,West,267,4.0,-999.0,24,-99.99,,,-99.99,,2013-03-30 21:12:00,
2013-03-30 17:22:00,55.0,19.0,29.97,West,272,6.0,-999.0,24,-99.99,,,-99.99,,2013-03-30 21:22:00,
2013-03-30 17:34:00,55.0,18.0,29.97,West,281,4.0,-999.0,23,-99.99,,,-99.99,,2013-03-30 21:34:00,
2013-03-30 17:43:00,55.0,18.0,29.97,West,281,4.0,-999.0,23,-99.99,,,-99.99,,2013-03-30 21:43:00,
2013-03-30 17:53:00,55.0,18.0,29.97,SW,228,6.0,-999.0,23,-99.99,,,-99.99,,2013-03-30 21:53:00,
2013-03-30 18:03:00,54.0,17.0,29.98,NNW,333,5.0,-999.0,23,-99.99,,,-99.99,,2013-03-30 22:03:00,
2013-03-30 18:13:00,54.0,17.0,29.98,NNW,333,5.0,-999.0,23,-99.99,,,-99.99,,2013-03-30 22:13:00,
2013-03-30 18:23:00,54.0,18.0,29.98,WNW,299,3.0,-999.0,24,-99.99,,,-99.99,,2013-03-30 22:23:00,
2013-03-30 18:33:00,53.0,17.0,29.98,WNW,291,2.0,-999.0,24,-99.99,,,-99.99,,2013-03-30 22:33:00,
2013-03-30 18:43:00,53.0,17.0,29.98,WNW,291,2.0,-999.0,24,-99.99,,,-99.99,,2013-03-30 22:43:00,
2013-03-30 18:54:00,53.0,19.0,29.98,West,259,2.0,-999.0,26,-99.99,,,-99.99,,2013-03-30 22:54:00,
2013-03-30 19:02:00,52.0,18.0,29.99,WNW,286,2.0,-999.0,26,-99.99,,,-99.99,,2013-03-30 23:02:00,
2013-03-30 19:12:00,52.0,18.0,29.99,WNW,286,2.0,-999.0,26,-99.99,,,-99.99,,2013-03-30 23:12:00,
2013-03-30 19:22:00,51.0,17.0,30.00,WNW,299,1.0,-999.0,26,-99.99,,,-99.99,,2013-03-30 23:22:00,
2013-03-30 19:33:00,50.0,17.0,30.00,WNW,296,0.0,-999.0,27,-99.99,,,-99.99,,2013-03-30 23:33:00,
2013-03-30 19:42:00,50.0,17.0,30.00,WNW,296,0.0,-999.0,27,-99.99,,,-99.99,,2013-03-30 23:42:00,
2013-03-30 19:53:00,49.0,17.0,30.01,WNW,293,0.0,-999.0,28,-99.99,,,-99.99,,2013-03-30 23:53:00,
2013-03-30 20:02:00,48.0,16.0,30.01,WNW,293,0.0,-999.0,28,-99.99,,,-99.99,,2013-03-31 00:02:00,
2013-03-30 20:12:00,48.0,16.0,30.01,WNW,293,0.0,-999.0,28,-99.99,,,-99.99,,2013-03-31 00:12:00,
2013-03-30 20:22:00,48.0,18.0,30.01,WNW,293,0.0,-999.0,30,-99.99,,,-99.99,,2013-03-31 00:22:00,
2013-03-30 20:32:00,47.0,18.0,30.02,WNW,293,0.0,-999.0,31,-99.99,,,-99.99,,2013-03-31 00:32:00,
2013-03-30 20:42:00,47.0,18.0,30.02,WNW,293,0.0,-999.0,31,-99.99,,,-99.99,,2013-03-31 00:42:00,
2013-03-30 20:53:00,46.0,18.0,30.03,WNW,293,0.0,-999.0,32,-99.99,,,-99.99,,2013-03-31 00:53:00,
2013-03-30 21:02:00,44.0,17.0,30.03,WNW,293,0.0,-999.0,33,-99.99,,,-99.99,,2013-03-31 01:02:00,
2013-03-30 21:12:00,44.0,17.0,30.03,WNW,293,0.0,-999.0,33,-99.99,,,-99.99,,2013-03-31 01:12:00,
2013-03-30 21:22:00,43.0,17.0,30.04,WNW,293,0.0,-999.0,35,-99.99,,,-99.99,,2013-03-31 01:22:00,
2013-03-30 21:32:00,42.0,18.0,30.04,WNW,293,0.0,-999.0,37,-99.99,,,-99.99,,2013-03-31 01:32:00,
2013-03-30 21:42:00,42.0,18.0,30.04,WNW,293,0.0,-999.0,37,-99.99,,,-99.99,,2013-03-31 01:42:00,
2013-03-30 21:53:00,42.0,18.0,30.04,WNW,293,0.0,-999.0,37,-99.99,,,-99.99,,2013-03-31 01:53:00,
2013-03-30 22:02:00,40.0,16.0,30.05,WNW,293,0.0,-999.0,37,-99.99,,,-99.99,,2013-03-31 02:02:00,
2013-03-30 22:13:00,40.0,16.0,30.05,WNW,293,0.0,-999.0,37,-99.99,,,-99.99,,2013-03-31 02:13:00,
2013-03-30 22:22:00,40.0,16.0,30.05,WNW,293,0.0,-999.0,38,-99.99,,,-99.99,,2013-03-31 02:22:00,
2013-03-30 22:32:00,39.0,16.0,30.05,WNW,293,0.0,-999.0,39,-99.99,,,-99.99,,2013-03-31 02:32:00,
2013-03-30 22:43:00,39.0,16.0,30.05,WNW,293,0.0,-999.0,39,-99.99,,,-99.99,,2013-03-31 02:43:00,
2013-03-30 22:52:00,39.0,16.0,30.05,WNW,293,0.0,-999.0,39,-99.99,,,-99.99,,2013-03-31 02:52:00,
2013-03-30 23:02:00,38.0,16.0,30.05,WNW,293,0.0,-999.0,41,-99.99,,,-99.99,,2013-03-31 03:02:00,
2013-03-30 23:13:00,38.0,16.0,30.05,WNW,293,0.0,-999.0,41,-99.99,,,-99.99,,2013-03-31 03:13:00,
2013-03-30 23:22:00,37.0,17.0,30.05,WNW,293,0.0,-999.0,43,-99.99,,,-99.99,,2013-03-31 03:22:00,
2013-03-30 23:33:00,36.0,16.0,30.05,WNW,293,0.0,-999.0,44,-99.99,,,-99.99,,2013-03-31 03:33:00,
2013-03-30 23:43:00,36.0,16.0,30.05,WNW,293,0.0,-999.0,44,-99.99,,,-99.99,,2013-03-31 03:43:00,
2013-03-30 23:54:00,35.0,16.0,30.06,WNW,293,0.0,-999.0,46,-99.99,,,-99.99,,2013-03-31 03:54:00,